www.pogodaiklimat.ru
ПОГОДА в Мартинсберге
Время
и дата
00:53 30.11
01:53 30.11
02:53 30.11
03:53 30.11
04:53 30.11
05:53 30.11
06:11 30.11
06:38 30.11
06:53 30.11
07:05 30.11
07:34 30.11
07:44 30.11
07:53 30.11
08:21 30.11
08:48 30.11
08:53 30.11
09:53 30.11
10:53 30.11
11:53 30.11
12:44 30.11
12:53 30.11
13:53 30.11
14:00 30.11
14:53 30.11
15:53 30.11
16:53 30.11
17:53 30.11
18:53 30.12
19:53 30.11
20:53 30.11
21:53 30.11
22:26 30.11
22:53 30.11
23:53 30.11
00:53 01.12
01:53 01.12
02:53 01.12
03:53 01.12
04:53 01.12
05:53 01.12
06:53 01.12
07:53 01.12
08:53 01.12
09:53 01.12
10:53 01.12
11:53 01.12
12:53 01.12
13:53 01.12
Ветер
(напр.,м/с)
Видим. Явления Облачность Т
(С)
Тd
(С)
f
(%)
Тe
(С)
Тes
(С)
Комфортность P
(гПа)
Po
(гПа)
Тmin
(С)
Tmax
(С)
R
(мм)
R24
(мм)
S
(см)
ЮВ 4
{8}
16 км ясно +7.2 +2.2 71 +4 +4 1018.1 997.5 +5.6 +7.2
ЮВ 4 16 км ясно +7.2 +2.8 74 +4 +4 1017.2 996.5
ЮВ 3 16 км 8/5 1470 m
[Ac]
+7.2 +2.8 74 +4 +4 1016.3 995.8
ЮВ 3 16 км ясно +7.2 +3.3 76 +4 +4 1015.4 994.8
ЮВ 4 16 км 10/10 1200 м +7.8 +3.9 76 +5 +5 1014.7 994.2
Ю 4 16 км 8/8 1200 m
[Ac]
+8.3 +5.0 80 +5 +5 1013.6 993.2
ЮВ 5
{9}
16 км слабый дождь 10/10 810 m
[Ns]
+7.8 +5.0 82 +4 +4 992.8
ЮВ 5
{8}
13 км слабый дождь 10/5 810 m
[Ac Ns]
+7.2 +6.1 93 +3 +3 992.5
ЮВ 5 13 км слабый дождь 10/8 300 m
[Ac Ns]
+7.2 +6.7 97 +3 +3 1013.0 992.5 +6.7 +8.3 0.5 0.5
ЮВ 4 13 км слабый дождь 10/10 300 m
[Ns]
+7.2 +6.7 97 +3 +3 992.2
Ю 5 13 км слабый дождь 10/8 300 m
[Ac Ns]
+7.8 +6.7 93 +4 +4 991.8
Ю 4 8 км слабый дождь, дымка 10/5 300 m
[Ac Ns]
+7.8 +6.7 93 +4 +4 991.5
Ю 4 11 км слабый дождь 10/2 960 m
[Ac Ns]
+7.8 +6.7 93 +4 +4 1011.8 991.2
Ю 5 4 км дождь, дымка 10/8 1650 m
[Ac Ns]
+7.8 +7.2 96 +4 +4 990.8
Ю 6
{10}
16 км 10/5 300 m
[Ac]
+8.0 +7.0 93 +4 +4 989.2
Ю 5
{10}
16 км 10/2 300 m
[Ac]
+8.3 +7.2 93 +5 +5 1010.0 989.5
Ю 6 16 км 10/8 990 m
[Ac]
+8.9 +7.8 93 +5 +5 1008.8 988.5 2.0
Ю 5
{9}
16 км 10/8 420 m
[Ac]
+10.6 +8.9 89 +8 +8 1007.3 986.9
Ю 3 16 км 10/10 870 м +12.2 +9.4 83 +11 +11 1006.2 985.9
Ю 6
{9}
16 км 10/5 840 m
[Ac]
+12.2 +9.4 83 +9 +10 984.9
Ю 6 16 км 10/0 3000 m
[Ac]
+12.8 +10.0 83 +10 +11 1004.7 984.5 +7.2 +12.8 2.0
З 11
{19}
11 км слабый дождь 10/10 780 m
[Ns]
+11.1 +6.7 74 +7 +7 1006.8 986.5
З 8
{17}
16 км слабый дождь 10/10 990 m
[Ns]
+11.1 +5.6 69 +8 +8 986.5
З 11
{17}
16 км 10/8 1950 m
[Ac]
+11.1 +1.1 50 +7 +7 1008.4 988.2
З 7
{14}
16 км ясно +10.6 -2.2 41 +8 +8 1010.5 990.2 1.0
З 8
{13}
16 км ясно +8.3 -4.4 40 +4 +4 1013.1 992.5
З 9
{11}
16 км ясно +7.2 -7.2 35 +3 +3 1013.9 993.5
З 11
{15}
16 км ясно +6.1 -6.7 39 +1 +1 1015.4 994.8 +6.1 +15.0 1.0
З 7
{13}
16 км ясно +5.6 -7.8 37 +1 +1 1016.2 995.5
З 9
{13}
16 км ясно +5.0 -8.3 38 0 0 1017.2 996.5
З 8
{10}
16 км ясно +3.9 -8.3 41 -2 -2 1017.8 997.1
З 5 16 км ясно +3.0 -8.0 44 -2 -2 997.5
З 6
{12}
16 км ясно +3.3 -8.3 42 -2 -2 1018.3 997.5
З 6
{11}
16 км ясно +3.3 -8.3 42 -2 -2 1018.3 997.8
З 7 16 км 8/8 1650 м +2.8 -8.3 44 -3 -3 1018.9 998.1 +2.8 +6.7
СЗ 5
{9}
16 км 8/8 1650 м +2.2 -8.3 46 -3 -3 1020.0 999.1
З 10
{14}
16 км ясно +1.7 -8.9 45 -5 -5 1021.4 1000.8
З 8
{14}
16 км ясно +1.1 -10.0 43 -5 -5 1021.8 1001.1
СЗ 9
{13}
16 км ясно +0.6 -10.0 45 -6 -6 1023.1 1002.1
СЗ 7
{10}
16 км ясно +0.6 -9.4 47 -6 -6 1024.4 1003.4
З 8
{13}
16 км ясно +0.6 -10.0 45 -6 -6 1026.0 1005.1 +2.8 3.0
СЗ 8
{11}
16 км ясно +0.6 -9.4 47 -6 -6 1027.2 1006.1
СЗ 5
{8}
16 км ясно +1.1 -8.9 47 -4 -4 1028.6 1007.4
СЗ 5
{8}
16 км ясно +2.2 -8.9 44 -3 -2 1029.4 1008.4
З 3 16 км ясно +3.3 -8.3 42 0 +3 1030.4 1009.4
З 3 16 км ясно +3.9 -8.9 39 +1 +5 1030.3 1009.1
СЗ 5
{8}
16 км ясно +5.6 -8.9 34 +2 +5 1030.2 1009.1 -0.6 +5.6
З 6
{8}
16 км ясно +6.1 -8.9 33 +2 +4 1030.3 1009.1
Местоположение метеостанции Eastern West Virginia Regional/Shepherd Airport: широта 39.4019 долгота -77.9844 высота над уровнем моря 170 м.
В архиве по умолчанию представлена погода в Мартинсберге за последние 1-2 суток. Обновление информации о фактической погоде в базе происходит ежечасно! Архивные данные за месяц целиком и за предыдущие месяцы Вы можете получить, выбрав интересующий диапазон дат из раскрывающегося списка и нажав кнопку "Ввод!".
Внимание! Архив погоды МЕТАР в базе сайта по станциям, не включенным в климатический монитор, хранится не более 60 дней. Нет смысла пытаться выбрать более раннюю дату.
*Определитесь, кто Вы:
Внимание! Время в таблицах - местное (без учета летнего времени). Для получения всемирного времени необходимо вычесть поправку, которая равна -5 ч.
Смотрите также архив погоды в соседних городах и на ближайших метеорологических станциях:
Партнеры нашего сайта:      
Пояснения к столбцам:
  • Ветер - указаны скорость ветра в м/с - средняя за 10 мин, порывы в срок и между сроками (в фигурных скобках) и направление, откуда дует ветер: С - северный,
  • СВ - северо-восточный, В - восточный, ЮВ - юго-восточный, Ю - южный, ЮЗ - юго-западный, З - западный, СЗ - северо-западный.
  • Видимость - горизонтальная дальность видимости в метрах или километрах. При видимости от 1 до 10 км при отсутствии осадков обычно наблюдается дымка, при ухудшении видимости до 1 км и менее - туман. В сухую погоду видимость может ухудшаться дымом, пылью или мглою.
  • Явления - указаны атмосферные явления, наблюдавшиеся в срок или в последний час перед сроком; фигурными скобками обозначены явления, наблюдавшиеся между сроками (за 1-3 часа до срока); квадратными скобками обозначены град или гололедные отложения с указанием их диаметра в мм.
  • Облачность - указаны через наклонную черту общая и нижняя облачность в баллах и высота нижней границы облаков в метрах; квадратными скобками обозначены формы облаков: Ci - перистые, Cs - перисто-слоистые, Cc - перисто-кучевые, Ac - высококучевые, As - высокослоистые, Sc - слоисто-кучевые, Ns - слоисто-дождевые, Cu - кучевые, Cb - кучево-дождевые. Подробнее классификацию облаков см. в Атласе облаков (PDF).
  • T - Температура воздуха - температура, измеренная на высоте 2 м над землей.
  • Td - Температура точки росы - температура, при понижении до которой содержащийся в воздухе водяной пар достигнет насыщения.
  • f - Относительная влажность воздуха - влажноcть воздуха, измеренная на высоте 2 м над землей.
  • Te - Эффективная температура - температура, которую ощущает одетый по сезону человек в тени. Характеристика душности погоды. При расчете учитывается влияние влажности воздуха и скорости ветра на теплоощущения человека.
  • Tes - Эффективная температура на солнце - температура, которую ощущает человек, с поправкой на солнечный нагрев. Характеристика знойности погоды. Зависит от высоты солнца над горизонтом, облачности и скорости ветра. Ночью, в пасмурную погоду, а также при ветре 12 м/с и более поправка равна нулю.
  • P - Атмосферное давление - приведенное к уровню моря атмосферное давление.
  • Po - Атмосферное давление - измеренное на уровне метеостанции атмосферное давление.
  • Tmin - Минимальная температура - минимум температуры воздуха на высоте 2 м над землей.
  • Tmax - Максимальная температура - максимум температуры воздуха на высоте 2 м над землей.
  • R - Количество осадков - Количество выпавших осадков за период времени, мм. При наведении курсора мыши на число - период времени, за который выпало указанное количество осадков.
  • R24 - Количество осадков - Количество выпавших осадков за 24 часа, мм.
  • S - Снежный покров - Высота снежного покрова, см. При наведении курсора мыши на число - состояние снежного покрова и степень покрытия местности в баллах.